Location: N�rnberg
(49.4489°N, 11.0797°E)
Time: 22:54:30
(UTC+01:00)

Envisat - Visible Passes

Search period start: 22 November 2017 00:00
Search period end: 02 December 2017 00:00
Orbit: 764 x 766 km, 98.2° (Epoch: 22 November)

Date Brightness Start Highest point End Pass type
(mag) Time Alt. Az. Time Alt. Az. Time Alt. Az.
22 Nov 5.1 17:58:42 10° NNE 17:58:42 10° NNE 17:58:54 10° NNE visible
22 Nov 5.1 19:38:55 16° N 19:38:55 16° N 19:39:55 10° N visible
23 Nov 5.0 19:01:51 16° N 19:01:51 16° N 19:02:54 10° N visible
24 Nov 5.0 18:24:46 13° NNE 18:24:46 13° NNE 18:25:30 10° NNE visible
24 Nov 5.5 20:04:59 13° NNW 20:04:59 13° NNW 20:05:33 10° NNW visible
25 Nov 5.2 19:27:54 15° N 19:27:54 15° N 19:28:44 10° N visible
26 Nov 5.1 18:50:50 14° N 18:50:50 14° N 18:51:38 10° N visible
27 Nov 5.1 18:13:45 11° NNE 18:13:45 11° NNE 18:14:03 10° NNE visible
27 Nov 5.5 19:53:58 13° NNW 19:53:58 13° NNW 19:54:26 10° NNW visible
28 Nov 5.2 19:16:53 14° N 19:16:53 14° N 19:17:32 10° N visible
29 Nov 5.1 18:39:47 12° NNE 18:39:47 12° NNE 18:40:19 10° N visible
30 Nov 5.4 19:42:54 12° N 19:42:54 12° N 19:43:18 10° N visible
01 Dec 5.2 19:05:48 13° N 19:05:48 13° N 19:06:19 10° N visible
